User: anonymous   Login
Location: Squamish
(49.7000°N, 123.1500°W)
Time: 17:11:02
(UTC-08:00)
Language:

NOAA 19 - Orbit

View from above orbital plane
View from above orbital plane
View from above satellite
View from above satellite

Ground track
Ground track

The orbit data is extracted from the following two-line orbital elements,

1 33591U 09005A   17321.58893962  .00000079  00000-0  68139-4 0  9996
2 33591  99.1140 290.7468 0013581 197.6248 162.4453 14.12229493452304
Epoch (UTC): 17 November 2017 14:08:04
Eccentricity: 0.0013581
inclination: 99.1140°
perigee height: 842 km
apogee height: 861 km
right ascension of ascending node: 290.7468°
argument of perigee: 197.6248°
revolutions per day: 14.12229493
mean anomaly at epoch: 162.4453°
orbit number at epoch: 45230

The dashed part of the orbit path shows where the satellite is in the earth's shadow,  

DLR